Time,TemperatureF,DewpointF,PressureIn,WindDirection,WindDirectionDegrees,WindSpeedMPH,WindSpeedGustMPH,Humidity,HourlyPrecipIn,Conditions,Clouds,dailyrainin,SoftwareType,DateUTC
2013-02-12 00:01:00,30.0,29.0,30.19,SW,229,3.0,5.0,96,0.00,,,0.02,,2013-02-12 07:01:00,
2013-02-12 00:11:00,30.0,29.0,30.19,SW,229,3.0,5.0,96,0.00,,,0.02,,2013-02-12 07:11:00,
2013-02-12 00:21:00,29.0,28.0,30.19,SW,222,4.0,6.0,96,0.00,,,0.02,,2013-02-12 07:21:00,
2013-02-12 00:31:00,29.0,28.0,30.19,West,271,3.0,6.0,96,0.00,,,0.02,,2013-02-12 07:31:00,
2013-02-12 00:41:00,29.0,28.0,30.19,West,271,3.0,6.0,96,0.00,,,0.02,,2013-02-12 07:41:00,
2013-02-12 00:51:00,29.0,28.0,30.20,WSW,253,2.0,6.0,96,0.00,,,0.02,,2013-02-12 07:51:00,
2013-02-12 01:01:00,30.0,29.0,30.21,SW,235,2.0,5.0,96,0.00,,,0.02,,2013-02-12 08:01:00,
2013-02-12 01:11:00,30.0,29.0,30.21,SW,235,2.0,5.0,96,0.00,,,0.02,,2013-02-12 08:11:00,
2013-02-12 01:21:00,30.0,29.0,30.22,WSW,248,5.0,7.0,96,0.00,,,0.02,,2013-02-12 08:21:00,
2013-02-12 01:31:00,30.0,29.0,30.22,WSW,242,4.0,7.0,96,0.00,,,0.02,,2013-02-12 08:31:00,
2013-02-12 01:41:00,30.0,29.0,30.22,WSW,242,4.0,7.0,96,0.00,,,0.02,,2013-02-12 08:41:00,
2013-02-12 01:52:00,29.0,28.0,30.21,West,259,0.0,4.0,96,0.00,,,0.02,,2013-02-12 08:52:00,
2013-02-12 02:01:00,29.0,28.0,30.20,SW,219,0.0,0.0,96,0.00,,,0.02,,2013-02-12 09:01:00,
2013-02-12 02:11:00,28.0,27.0,30.21,SW,231,0.0,1.0,96,0.00,,,0.02,,2013-02-12 09:11:00,
2013-02-12 02:21:00,28.0,27.0,30.21,SW,231,0.0,1.0,96,0.00,,,0.02,,2013-02-12 09:21:00,
2013-02-12 02:31:00,28.0,27.0,30.21,WSW,243,0.0,0.0,96,0.00,,,0.02,,2013-02-12 09:31:00,
2013-02-12 02:41:00,27.0,26.0,30.21,SSW,201,0.0,1.0,96,0.00,,,0.02,,2013-02-12 09:41:00,
2013-02-12 02:52:00,27.0,26.0,30.21,SSW,201,0.0,1.0,96,0.00,,,0.02,,2013-02-12 09:52:00,
2013-02-12 03:01:00,27.0,26.0,30.21,SW,217,2.0,5.0,96,0.00,,,0.02,,2013-02-12 10:01:00,
2013-02-12 03:11:00,28.0,27.0,30.22,WSW,246,0.0,4.0,97,0.00,,,0.02,,2013-02-12 10:11:00,
2013-02-12 03:21:00,28.0,27.0,30.22,WSW,246,0.0,4.0,97,0.00,,,0.02,,2013-02-12 10:21:00,
2013-02-12 03:31:00,29.0,28.0,30.22,SW,231,0.0,0.0,97,0.00,,,0.02,,2013-02-12 10:31:00,
2013-02-12 03:43:00,29.0,28.0,30.22,SW,231,0.0,0.0,97,0.00,,,0.02,,2013-02-12 10:43:00,
2013-02-12 03:52:00,28.0,27.0,30.21,WSW,244,0.0,0.0,96,0.00,,,0.02,,2013-02-12 10:52:00,
2013-02-12 04:01:00,28.0,27.0,30.21,South,188,0.0,0.0,96,0.00,,,0.02,,2013-02-12 11:01:00,
2013-02-12 04:11:00,28.0,27.0,30.21,South,188,0.0,0.0,96,0.00,,,0.02,,2013-02-12 11:11:00,
2013-02-12 04:21:00,27.0,26.0,30.21,WSW,255,0.0,0.0,96,0.00,,,0.02,,2013-02-12 11:21:00,
2013-02-12 04:31:00,28.0,27.0,30.21,SSW,207,0.0,0.0,96,0.00,,,0.02,,2013-02-12 11:31:00,
2013-02-12 04:41:00,28.0,27.0,30.21,SSW,207,0.0,0.0,96,0.00,,,0.02,,2013-02-12 11:41:00,
2013-02-12 04:52:00,28.0,27.0,30.21,SSW,197,0.0,0.0,96,0.00,,,0.02,,2013-02-12 11:52:00,
2013-02-12 05:01:00,27.0,26.0,30.21,SSW,200,0.0,0.0,96,0.00,,,0.02,,2013-02-12 12:01:00,
2013-02-12 05:11:00,27.0,26.0,30.22,SSW,200,0.0,0.0,96,0.00,,,0.02,,2013-02-12 12:11:00,
2013-02-12 05:21:00,27.0,26.0,30.22,SSW,200,0.0,0.0,96,0.00,,,0.02,,2013-02-12 12:21:00,
2013-02-12 05:32:00,27.0,26.0,30.22,South,183,0.0,0.0,96,0.00,,,0.02,,2013-02-12 12:32:00,
2013-02-12 05:41:00,27.0,26.0,30.22,South,183,0.0,0.0,96,0.00,,,0.02,,2013-02-12 12:41:00,
2013-02-12 05:52:00,26.0,25.0,30.22,SSE,159,0.0,0.0,96,0.00,,,0.02,,2013-02-12 12:52:00,
2013-02-12 06:01:00,26.0,25.0,30.22,South,185,0.0,0.0,95,0.00,,,0.02,,2013-02-12 13:01:00,
2013-02-12 06:11:00,26.0,25.0,30.23,West,264,0.0,0.0,95,0.00,,,0.02,,2013-02-12 13:11:00,
2013-02-12 06:21:00,26.0,25.0,30.23,West,264,0.0,0.0,95,0.00,,,0.02,,2013-02-12 13:21:00,
2013-02-12 06:31:00,26.0,25.0,30.23,SSE,155,0.0,0.0,94,0.00,,,0.02,,2013-02-12 13:31:00,
2013-02-12 06:41:00,26.0,25.0,30.23,SSE,155,0.0,0.0,94,0.00,,,0.02,,2013-02-12 13:41:00,
2013-02-12 06:52:00,24.0,23.0,30.24,SW,214,0.0,0.0,94,0.00,,,0.02,,2013-02-12 13:52:00,
2013-02-12 07:01:00,25.0,24.0,30.25,SSE,165,0.0,0.0,95,0.00,,,0.02,,2013-02-12 14:01:00,
2013-02-12 07:11:00,25.0,24.0,30.25,SSE,165,0.0,0.0,95,0.00,,,0.02,,2013-02-12 14:11:00,
2013-02-12 07:21:00,25.0,24.0,30.25,SSE,150,0.0,0.0,95,0.00,,,0.02,,2013-02-12 14:21:00,
2013-02-12 07:31:00,25.0,24.0,30.25,SSE,154,0.0,0.0,94,0.00,,,0.02,,2013-02-12 14:31:00,
2013-02-12 07:41:00,25.0,24.0,30.25,SSE,154,0.0,0.0,94,0.00,,,0.02,,2013-02-12 14:41:00,
2013-02-12 07:52:00,25.0,24.0,30.26,SSW,211,0.0,0.0,94,0.00,,,0.02,,2013-02-12 14:52:00,
2013-02-12 08:01:00,25.0,24.0,30.26,SSW,200,0.0,0.0,94,0.00,,,0.02,,2013-02-12 15:01:00,
2013-02-12 08:11:00,28.0,27.0,30.27,SE,127,0.0,0.0,94,0.00,,,0.02,,2013-02-12 15:11:00,
2013-02-12 08:21:00,28.0,27.0,30.27,SE,127,0.0,0.0,94,0.00,,,0.02,,2013-02-12 15:21:00,
2013-02-12 08:32:00,28.0,26.0,30.28,SE,134,0.0,0.0,92,0.00,,,0.02,,2013-02-12 15:32:00,
2013-02-12 08:41:00,28.0,26.0,30.28,SE,134,0.0,0.0,92,0.00,,,0.02,,2013-02-12 15:41:00,
2013-02-12 08:52:00,30.0,28.0,30.29,ESE,115,0.0,0.0,92,0.00,,,0.02,,2013-02-12 15:52:00,
2013-02-12 09:01:00,32.0,29.0,30.29,East,98,0.0,0.0,90,0.00,,,0.02,,2013-02-12 16:01:00,
2013-02-12 09:11:00,32.0,29.0,30.29,East,98,0.0,0.0,90,0.00,,,0.02,,2013-02-12 16:11:00,
2013-02-12 09:21:00,33.0,30.0,30.29,East,88,0.0,0.0,87,0.00,,,0.02,,2013-02-12 16:21:00,
2013-02-12 09:31:00,33.0,29.0,30.29,ESE,109,0.0,0.0,85,0.00,,,0.02,,2013-02-12 16:31:00,
2013-02-12 09:41:00,33.0,29.0,30.29,ESE,109,0.0,0.0,85,0.00,,,0.02,,2013-02-12 16:41:00,
2013-02-12 09:52:00,33.0,28.0,30.30,NE,50,0.0,0.0,83,0.00,,,0.02,,2013-02-12 16:52:00,
2013-02-12 10:01:00,33.0,29.0,30.30,East,82,1.0,4.0,86,0.00,,,0.02,,2013-02-12 17:01:00,
2013-02-12 10:11:00,34.0,30.0,30.30,ESE,107,2.0,4.0,85,0.00,,,0.02,,2013-02-12 17:11:00,
2013-02-12 10:21:00,34.0,30.0,30.30,ESE,107,2.0,4.0,85,0.00,,,0.02,,2013-02-12 17:21:00,
2013-02-12 10:31:00,34.0,29.0,30.31,East,92,4.0,5.0,83,0.00,,,0.02,,2013-02-12 17:31:00,
2013-02-12 10:41:00,34.0,29.0,30.31,East,92,4.0,5.0,83,0.00,,,0.02,,2013-02-12 17:41:00,
2013-02-12 10:52:00,34.0,29.0,30.31,NNE,27,0.0,4.0,81,0.00,,,0.02,,2013-02-12 17:52:00,
2013-02-12 11:01:00,33.0,27.0,30.32,ENE,64,0.0,4.0,78,0.00,,,0.02,,2013-02-12 18:01:00,
2013-02-12 11:11:00,33.0,27.0,30.32,NE,47,0.0,4.0,77,0.00,,,0.02,,2013-02-12 18:11:00,
2013-02-12 11:22:00,33.0,27.0,30.32,NE,47,0.0,4.0,77,0.00,,,0.02,,2013-02-12 18:22:00,
2013-02-12 11:31:00,34.0,29.0,30.31,WNW,284,0.0,3.0,82,0.00,,,0.02,,2013-02-12 18:31:00,
2013-02-12 11:41:00,34.0,29.0,30.31,WNW,284,0.0,3.0,82,0.00,,,0.02,,2013-02-12 18:41:00,
2013-02-12 11:51:00,34.0,28.0,30.30,West,280,1.0,4.0,79,0.01,,,0.03,,2013-02-12 18:51:00,
2013-02-12 12:01:00,35.0,27.0,30.30,NNE,27,0.0,5.0,73,0.02,,,0.04,,2013-02-12 19:01:00,
2013-02-12 12:11:00,36.0,29.0,30.29,West,277,0.0,4.0,75,0.03,,,0.05,,2013-02-12 19:11:00,
2013-02-12 12:21:00,36.0,29.0,30.29,West,277,0.0,4.0,75,0.03,,,0.05,,2013-02-12 19:21:00,
2013-02-12 12:31:00,36.0,25.0,30.29,NNE,21,0.0,5.0,65,0.03,,,0.05,,2013-02-12 19:31:00,
2013-02-12 12:41:00,37.0,27.0,30.29,ESE,120,0.0,4.0,68,0.02,,,0.05,,2013-02-12 19:41:00,
2013-02-12 12:52:00,37.0,27.0,30.29,ESE,120,0.0,4.0,68,0.02,,,0.05,,2013-02-12 19:52:00,
2013-02-12 13:01:00,38.0,26.0,30.28,West,267,0.0,4.0,62,0.01,,,0.05,,2013-02-12 20:01:00,
2013-02-12 13:11:00,38.0,26.0,30.28,West,267,0.0,4.0,62,0.01,,,0.05,,2013-02-12 20:11:00,
2013-02-12 13:21:00,40.0,27.0,30.27,WSW,255,0.0,4.0,60,0.00,,,0.05,,2013-02-12 20:21:00,
2013-02-12 13:31:00,40.0,25.0,30.26,West,273,4.0,6.0,55,0.00,,,0.05,,2013-02-12 20:31:00,
2013-02-12 13:41:00,40.0,25.0,30.26,West,273,4.0,6.0,55,0.00,,,0.05,,2013-02-12 20:41:00,
2013-02-12 13:52:00,40.0,26.0,30.26,West,271,1.0,7.0,58,0.00,,,0.05,,2013-02-12 20:52:00,
2013-02-12 14:01:00,40.0,26.0,30.25,WNW,300,1.0,6.0,57,0.00,,,0.05,,2013-02-12 21:01:00,
2013-02-12 14:11:00,40.0,26.0,30.25,WNW,300,1.0,6.0,57,0.00,,,0.05,,2013-02-12 21:11:00,
2013-02-12 14:21:00,42.0,27.0,30.25,WNW,297,1.0,6.0,56,0.00,,,0.05,,2013-02-12 21:21:00,
2013-02-12 14:31:00,41.0,27.0,30.25,WSW,253,2.0,6.0,56,0.00,,,0.05,,2013-02-12 21:31:00,
2013-02-12 14:41:00,42.0,26.0,30.24,West,266,2.0,8.0,53,0.00,,,0.05,,2013-02-12 21:41:00,
2013-02-12 14:51:00,42.0,26.0,30.24,West,266,2.0,8.0,53,0.00,,,0.05,,2013-02-12 21:51:00,
2013-02-12 15:01:00,43.0,27.0,30.24,SW,232,1.0,7.0,52,0.00,,,0.05,,2013-02-12 22:01:00,
2013-02-12 15:11:00,43.0,27.0,30.24,SW,232,1.0,7.0,52,0.00,,,0.05,,2013-02-12 22:11:00,
2013-02-12 15:21:00,42.0,26.0,30.23,SW,228,5.0,11.0,52,0.00,,,0.05,,2013-02-12 22:21:00,
2013-02-12 15:31:00,43.0,27.0,30.23,West,281,6.0,11.0,52,0.00,,,0.05,,2013-02-12 22:31:00,
2013-02-12 15:41:00,43.0,27.0,30.23,West,281,6.0,11.0,52,0.00,,,0.05,,2013-02-12 22:41:00,
2013-02-12 15:52:00,43.0,28.0,30.23,NE,50,3.0,10.0,55,0.00,,,0.05,,2013-02-12 22:52:00,
2013-02-12 16:01:00,43.0,26.0,30.23,SE,131,0.0,9.0,51,0.00,,,0.05,,2013-02-12 23:01:00,
2013-02-12 16:11:00,43.0,26.0,30.23,West,264,3.0,8.0,51,0.00,,,0.05,,2013-02-12 23:11:00,
2013-02-12 16:21:00,43.0,26.0,30.23,West,264,3.0,8.0,51,0.00,,,0.05,,2013-02-12 23:21:00,
2013-02-12 16:31:00,43.0,26.0,30.23,West,259,4.0,8.0,51,0.00,,,0.04,,2013-02-12 23:31:00,
2013-02-12 16:41:00,43.0,26.0,30.23,West,259,4.0,8.0,51,0.00,,,0.04,,2013-02-12 23:41:00,
2013-02-12 16:52:00,44.0,27.0,30.23,WSW,240,3.0,7.0,51,0.00,,,0.04,,2013-02-12 23:52:00,
2013-02-12 17:02:00,44.0,27.0,30.23,WSW,238,2.0,11.0,50,0.00,,,0.04,,2013-02-13 00:02:00,
2013-02-12 17:11:00,44.0,27.0,30.23,WSW,238,2.0,11.0,50,0.00,,,0.04,,2013-02-13 00:11:00,
2013-02-12 17:21:00,44.0,27.0,30.23,WSW,240,3.0,6.0,50,0.00,,,0.04,,2013-02-13 00:21:00,
2013-02-12 17:32:00,43.0,26.0,30.23,West,271,1.0,7.0,50,0.00,,,0.03,,2013-02-13 00:32:00,
2013-02-12 17:41:00,43.0,26.0,30.23,West,271,1.0,7.0,50,0.00,,,0.03,,2013-02-13 00:41:00,
2013-02-12 17:52:00,43.0,27.0,30.23,West,277,1.0,6.0,53,0.00,,,0.03,,2013-02-13 00:52:00,
2013-02-12 18:01:00,43.0,28.0,30.23,WSW,239,3.0,6.0,54,0.00,,,0.03,,2013-02-13 01:01:00,
2013-02-12 18:11:00,43.0,28.0,30.23,WSW,239,3.0,6.0,54,0.00,,,0.03,,2013-02-13 01:11:00,
2013-02-12 18:21:00,41.0,27.0,30.23,WSW,255,4.0,5.0,56,0.00,,,0.03,,2013-02-13 01:21:00,
2013-02-12 18:31:00,40.0,26.0,30.23,SW,225,5.0,7.0,58,0.00,,,0.03,,2013-02-13 01:31:00,
2013-02-12 18:42:00,39.0,27.0,30.24,SW,236,4.0,6.0,62,0.00,,,0.03,,2013-02-13 01:42:00,
2013-02-12 18:52:00,39.0,27.0,30.24,SW,236,4.0,6.0,62,0.00,,,0.03,,2013-02-13 01:52:00,
2013-02-12 19:01:00,38.0,27.0,30.24,SW,228,5.0,6.0,64,0.00,,,0.03,,2013-02-13 02:01:00,
2013-02-12 19:11:00,38.0,26.0,30.25,SW,231,6.0,8.0,62,0.00,,,0.03,,2013-02-13 02:11:00,
2013-02-12 19:21:00,38.0,26.0,30.25,SW,231,6.0,8.0,62,0.00,,,0.03,,2013-02-13 02:21:00,
2013-02-12 19:31:00,38.0,27.0,30.25,SW,231,6.0,9.0,63,0.00,,,0.03,,2013-02-13 02:31:00,
2013-02-12 19:41:00,38.0,27.0,30.25,SW,231,6.0,9.0,63,0.00,,,0.03,,2013-02-13 02:41:00,
2013-02-12 19:52:00,37.0,26.0,30.25,SSW,203,3.0,7.0,65,0.00,,,0.03,,2013-02-13 02:52:00,
2013-02-12 20:01:00,36.0,26.0,30.26,WSW,238,4.0,7.0,66,0.00,,,0.03,,2013-02-13 03:01:00,
2013-02-12 20:11:00,36.0,26.0,30.26,West,273,3.0,7.0,66,0.00,,,0.03,,2013-02-13 03:11:00,
2013-02-12 20:21:00,36.0,26.0,30.26,West,273,3.0,7.0,66,0.00,,,0.03,,2013-02-13 03:21:00,
2013-02-12 20:31:00,36.0,26.0,30.26,SW,214,3.0,6.0,67,0.00,,,0.03,,2013-02-13 03:31:00,
2013-02-12 20:41:00,36.0,26.0,30.26,SW,214,3.0,6.0,67,0.00,,,0.03,,2013-02-13 03:41:00,
2013-02-12 20:51:00,36.0,27.0,30.26,WSW,248,3.0,7.0,69,0.00,,,0.03,,2013-02-13 03:51:00,
2013-02-12 21:01:00,36.0,27.0,30.26,SW,222,7.0,9.0,69,0.00,,,0.03,,2013-02-13 04:01:00,
2013-02-12 21:11:00,36.0,27.0,30.26,SW,222,7.0,9.0,69,0.00,,,0.03,,2013-02-13 04:11:00,
2013-02-12 21:21:00,36.0,27.0,30.26,SW,226,6.0,8.0,70,0.00,,,0.03,,2013-02-13 04:21:00,
2013-02-12 21:31:00,35.0,27.0,30.26,SSW,204,6.0,7.0,71,0.00,,,0.03,,2013-02-13 04:31:00,
2013-02-12 21:41:00,35.0,27.0,30.26,SSW,204,6.0,7.0,71,0.00,,,0.03,,2013-02-13 04:41:00,
2013-02-12 21:51:00,35.0,27.0,30.27,SW,236,5.0,7.0,72,0.00,,,0.03,,2013-02-13 04:51:00,
2013-02-12 22:01:00,35.0,27.0,30.27,SW,224,3.0,5.0,73,0.00,,,0.03,,2013-02-13 05:01:00,
2013-02-12 22:11:00,34.0,26.0,30.27,SW,232,1.0,5.0,72,0.00,,,0.03,,2013-02-13 05:11:00,
2013-02-12 22:21:00,34.0,26.0,30.27,SW,232,1.0,5.0,72,0.00,,,0.03,,2013-02-13 05:21:00,
2013-02-12 22:31:00,35.0,27.0,30.27,West,267,2.0,5.0,71,0.00,,,0.03,,2013-02-13 05:31:00,
2013-02-12 22:41:00,35.0,27.0,30.27,West,267,2.0,5.0,71,0.00,,,0.03,,2013-02-13 05:41:00,
2013-02-12 22:52:00,35.0,26.0,30.27,West,275,2.0,3.0,69,0.00,,,0.03,,2013-02-13 05:52:00,
2013-02-12 23:01:00,35.0,26.0,30.27,West,273,0.0,0.0,68,0.00,,,0.03,,2013-02-13 06:01:00,
2013-02-12 23:11:00,35.0,25.0,30.27,WNW,287,0.0,4.0,66,0.00,,,0.03,,2013-02-13 06:11:00,
2013-02-12 23:21:00,35.0,25.0,30.27,WNW,287,0.0,4.0,66,0.00,,,0.03,,2013-02-13 06:21:00,
2013-02-12 23:31:00,35.0,25.0,30.27,WNW,292,0.0,4.0,66,0.00,,,0.03,,2013-02-13 06:31:00,
2013-02-12 23:41:00,34.0,25.0,30.26,West,266,0.0,0.0,68,0.00,,,0.03,,2013-02-13 06:41:00,
2013-02-12 23:52:00,34.0,25.0,30.26,West,266,0.0,0.0,68,0.00,,,0.03,,2013-02-13 06:52:00,